Flag for United Kingdom Weather past 2 weeks in Preston, England, United Kingdom

Now
61 °F

Thunderstorms. Passing clouds.


Feels Like: 61 °F
Forecast: 53 / 69 °F
Wind: 12 mph from East

Location: Liverpool Airport

Current Time: Jul 4, 2015 at 3:34:08 AM

Latest Report: Jul 4, 2015 at 3:20 AM


Visibility: N/A

Pressure: 29.95 "Hg

Humidity: 83%

Dew point: 55 °F

Location of PrestonLocation

Historic Weather in Preston — Graph

°F

Preston temperature yesterday

Maximum temperature yesterday: 75 °F (at 3:20 PM)
Minimum temperature yesterday: 52 °F (at 4:50 AM)
Average temperature yesterday: 64 °F

Past Weeks' High & Low Weather Summary

 TemperatureHumidityPressure
High82 °F (Jun 30, 3:50 PM)100% (Jun 20, 1:50 AM)30.30 "Hg (Jun 20, 1:50 AM)
Low50 °F (Jun 22, 5:50 AM)41% (Jul 3, 3:50 PM)29.77 "Hg (Jul 1, 3:50 PM)
Average62 °F77%30.04 "Hg
* Reported Jun 19 2:20 AM — Jul 4 2:20 AM, Preston, Weather by CustomWeather, © 2015

Note: Actual official high and low records may vary slightly from our data, if they occured in-between our weather recording intervals... More about our weather records

Advertising

Preston weather history for previous 24 hours

 ConditionsComfort  
Time TempWeatherWind HumidityBarometerVisibility
2:20 AM
Sat, Jul 4
61 °FThunderstorms. Passing clouds.7 mph83%29.98 "HgN/A
1:50 AM61 °FThunderstorms. Passing clouds.8 mph77%29.98 "HgN/A
1:20 AM63 °FThunderstorms. Passing clouds.7 mph73%30.01 "HgN/A
12:50 AM61 °FThunderstorms. Passing clouds.10 mph77%30.04 "HgN/A
12:20 AM63 °FThunderstorms. Passing clouds.12 mph68%30.04 "HgN/A
11:50 PM
Fri, Jul 3
63 °FThunderstorms. Passing clouds.14 mph68%30.04 "HgN/A
11:20 PM63 °FThunderstorms. Passing clouds.16 mph64%30.07 "HgN/A
10:50 PM63 °FThunderstorms. Passing clouds.17 mph64%30.07 "HgN/A
10:20 PM66 °FThunderstorms. Passing clouds.20 mph52%30.09 "HgN/A
9:50 PM66 °FSunny.20 mph56%30.09 "Hg10 mi
9:20 PM66 °FSunny.16 mph60%30.09 "Hg10 mi
8:50 PM68 °FSunny.14 mph56%30.09 "Hg10 mi
8:20 PM70 °FSunny.16 mph53%30.12 "Hg10 mi
7:50 PM72 °FSunny.15 mph57%30.12 "Hg10 mi
7:20 PM73 °FSunny.13 mph53%30.12 "Hg10 mi
6:50 PM73 °FSunny.14 mph50%30.15 "Hg10 mi
6:20 PM73 °FSunny.10 mph50%30.15 "Hg10 mi
5:50 PM73 °FSunny.10 mph53%30.15 "Hg10 mi
5:20 PM73 °FPassing clouds.12 mph53%30.15 "HgN/A
4:50 PM73 °FPassing clouds.12 mph50%30.18 "HgN/A
4:20 PM73 °FPassing clouds.10 mph50%30.18 "HgN/A
3:50 PM75 °FPassing clouds.13 mph41%30.18 "HgN/A
3:20 PM75 °FPassing clouds.10 mph47%30.21 "HgN/A
2:50 PM73 °FPassing clouds.8 mph47%30.21 "HgN/A
2:20 PM73 °FPassing clouds.8 mph47%30.24 "HgN/A
1:50 PM72 °FPassing clouds.7 mph50%30.24 "HgN/A
1:20 PM72 °FPassing clouds.8 mph50%30.24 "HgN/A
12:50 PM70 °FPassing clouds.7 mph57%30.24 "HgN/A
12:20 PM70 °FPassing clouds.7 mph64%30.27 "HgN/A
11:50 AM68 °FPassing clouds.8 mph64%30.27 "HgN/A
11:20 AM68 °FPassing clouds.8 mph64%30.27 "HgN/A
10:50 AM66 °FPassing clouds.9 mph73%30.27 "HgN/A
10:20 AM64 °FPassing clouds.8 mph78%30.30 "HgN/A
9:50 AM64 °FPassing clouds.10 mph78%30.30 "HgN/A
9:20 AM63 °FPassing clouds.6 mph83%30.30 "HgN/A
8:50 AM61 °FSunny.6 mph88%30.30 "Hg10 mi
8:20 AM61 °FPassing clouds.5 mph88%30.30 "HgN/A
7:50 AM57 °FSunny.5 mph94%30.30 "Hg10 mi
7:20 AM57 °FPassing clouds.5 mph94%30.27 "HgN/A
6:50 AM55 °FPassing clouds.6 mph94%30.27 "HgN/A
6:20 AM55 °FSunny.2 mph94%30.27 "Hg10 mi
5:50 AM54 °FPassing clouds.6 mph94%30.27 "HgN/A
5:20 AM54 °FClear.3 mph94%30.27 "Hg10 mi
4:50 AM52 °FClear.5 mph100%30.27 "Hg10 mi
4:20 AM54 °FClear.5 mph94%30.27 "Hg10 mi
3:50 AM55 °FClear.2 mph88%30.27 "Hg10 mi
3:20 AM55 °FClear.5 mph88%30.27 "Hg10 mi
Weather by CustomWeather, © 2015

See weather overviewHow to use our weather pages